Regional Weather Roundup
Issued by NWS Northern Indiana

Home | Current Version | Previous Version | Graphics & Text | Print | Product List | Glossary On
Versions: 1 2 3 4 5 6 7 8 9 10 11 12 13 14 15 16 17 18 19 20 21 22 23 24 25 26 27 28 29 30 31 32 33 34 35 36 37 38 39 40 41 42 43 44 45 46 47 48 49 50
000
ASUS43 KIWX 300110
RWRIWX

KIWX WEATHER ROUNDUP
NATIONAL WEATHER SERVICE NORTHERN INDIANA
900 PM EDT FRI AUG 29 2014

NOTE: "FAIR" INDICATES FEW OR NO CLOUDS BELOW 12,000 FEET WITH NO
SIGNIFICANT WEATHER AND/OR OBSTRUCTIONS TO VISIBILITY.

* THESE STATIONS ARE NOT UNDER NWS QUALITY CONTROL. THEY ALSO MAY NOT
  REPORT WEATHER SUCH AS PRECIPITATION OR FOG.

INZ001>027-300200-
NORTHERN INDIANA

CITY           SKY/WX    TMP DP  RH WIND       PRES   REMARKS
GARY*          MOCLDY    77  70  78 SE14      29.91S
VALPARAISO     LGT RAIN  75  72  90 SE6       29.93S
MICHIGAN CITY* MOCLDY    73  72  94 CALM      29.93S
LAPORTE*       CLOUDY    73  73 100 SE3       29.94S
KNOX*          CLOUDY    76  69  79 SE5       29.93S
SOUTH BEND     CLOUDY    77  71  82 SE8       29.95S
GOSHEN         PTCLDY    77  69  76 SE7       29.96S
MONTICELLO*    HVY RAIN  77  73  86 SW9       29.94R
LOGANSPORT*    CLOUDY    75  70  83 E7        29.94F
ROCHESTER*     MOCLDY    79  72  78 SE9       29.95S
WARSAW*        PTCLDY    75  70  83 SE3       29.97R
ANGOLA*        CLEAR     75  68  78 SE6       30.00R
FORT WAYNE     PTCLDY    75  67  76 SE8       29.99S
HUNTINGTON*    CLEAR     77  69  76 SE6       29.98R
PERU/GRISSOM   MOCLDY    78  75  93 SE8       29.95S
MARION*        PTCLDY    75  68  79 SE7       29.98S

$$
INZ028>050-300200-
CENTRAL INDIANA

CITY           SKY/WX    TMP DP  RH WIND       PRES   REMARKS
LAFAYETTE      CLOUDY    70  67  90 S3        29.92F
KOKOMO*        MOCLDY    75  70  83 SE9       29.95F
MUNCIE*        CLEAR     78  67  68 SE7       30.00R
INDIANAPOLIS   MOCLDY    80  69  69 S9        29.96R

$$
MIZ043>046-050>051-056>058-064>065-071>073-077>080-300200-
SOUTHWEST LOWER MICHIGAN

CITY           SKY/WX    TMP DP  RH WIND       PRES   REMARKS
BATTLE CREEK   MOCLDY    77  67  71 SE9       29.98S
BENTON HARBOR  CLOUDY    74  71  91 SE7       29.93F
COLDWATER*     PTCLDY    76  67  72 SE6       29.99S
HILLSDALE*     PTCLDY    75  66  74 SE3       30.02R
HOLLAND        CLOUDY    76  71  85 SE9       29.94R
GRAND RAPIDS   MOCLDY    73  72  96 S7        29.96R
KALAMAZOO      MOCLDY    75  68  78 SE5       29.97S
STURGIS*       PTCLDY    75  70  83 SE8       29.98R
THREE RIVERS*  FAIR      75  69  84 CALM      29.97S

$$
OHZ001>008-015>018-024>025-300200-
NORTHWEST OHIO

CITY           SKY/WX    TMP DP  RH WIND       PRES   REMARKS
WAUSEON*       FAIR      73  66  78 SE5       30.03R
DEFIANCE       CLEAR     79  65  62 SE7       30.01S
FINDLAY        CLEAR     75  63  66 SE6       30.03R
TOLEDO EXPRESS CLEAR     75  62  64 SE3       30.02R
TOLEDO METCALF CLEAR     71  63  75 E6        30.04R
LIMA           CLEAR     75  66  73 SE8       30.03S

$$
&&



USA.gov is the U.S. government's official web portal to all federal, state and local government web resources and services.